Time,TemperatureF,DewpointF,PressureIn,WindDirection,WindDirectionDegrees,WindSpeedMPH,WindSpeedGustMPH,Humidity,HourlyPrecipIn,Conditions,Clouds,dailyrainin,SolarRadiationWatts/m^2,SoftwareType,DateUTC
2013-07-26 00:02:00,77.0,35.0,-100.00,West,275,20.0,34.0,22,0.00,,,0.00,0.000000,,2013-07-26 07:02:00,
2013-07-26 00:32:00,77.0,35.0,-100.00,West,275,20.0,34.0,22,0.00,,,0.00,0.000000,,2013-07-26 07:32:00,
2013-07-26 00:43:00,77.0,35.0,-100.00,West,275,20.0,34.0,22,0.00,,,0.00,0.000000,,2013-07-26 07:43:00,
2013-07-26 00:53:00,77.0,35.0,-100.00,West,275,20.0,34.0,22,0.00,,,0.00,0.000000,,2013-07-26 07:53:00,
2013-07-26 10:02:00,80.0,44.0,-100.00,West,269,0.0,0.0,28,-99.99,,,0.00,597.000000,,2013-07-26 17:02:00,
2013-07-26 10:33:00,80.0,44.0,-100.00,West,269,0.0,0.0,28,-99.99,,,0.00,597.000000,,2013-07-26 17:33:00,
2013-07-26 10:43:00,80.0,44.0,-100.00,West,269,0.0,0.0,28,-99.99,,,0.00,597.000000,,2013-07-26 17:43:00,
2013-07-26 10:53:00,80.0,44.0,-100.00,West,269,0.0,0.0,28,-99.99,,,0.00,597.000000,,2013-07-26 17:53:00,
2013-07-26 15:02:00,88.0,49.0,-100.00,West,266,10.0,18.0,26,0.00,,,0.00,943.000000,,2013-07-26 22:02:00,
2013-07-26 15:33:00,88.0,49.0,-100.00,West,266,10.0,18.0,26,0.00,,,0.00,943.000000,,2013-07-26 22:33:00,
2013-07-26 15:43:00,88.0,49.0,-100.00,West,266,10.0,18.0,26,0.00,,,0.00,943.000000,,2013-07-26 22:43:00,
2013-07-26 15:53:00,88.0,49.0,-100.00,West,266,10.0,18.0,26,0.00,,,0.00,943.000000,,2013-07-26 22:53:00,
2013-07-26 16:32:00,89.0,49.0,-100.00,West,259,10.0,19.0,25,0.00,,,0.00,849.000000,,2013-07-26 23:32:00,
2013-07-26 16:43:00,89.0,49.0,-100.00,West,259,10.0,19.0,25,0.00,,,0.00,849.000000,,2013-07-26 23:43:00,
2013-07-26 16:53:00,89.0,49.0,-100.00,West,259,10.0,19.0,25,0.00,,,0.00,849.000000,,2013-07-26 23:53:00,
2013-07-26 17:01:00,89.0,49.0,-100.00,West,259,10.0,19.0,25,0.00,,,0.00,849.000000,,2013-07-27 00:01:00,
2013-07-26 17:02:00,86.0,47.0,-100.00,West,263,11.0,21.0,26,0.00,,,0.00,706.000000,,2013-07-27 00:02:00,
2013-07-26 17:32:00,86.0,47.0,-100.00,West,263,11.0,21.0,26,0.00,,,0.00,706.000000,,2013-07-27 00:32:00,
2013-07-26 17:43:00,86.0,47.0,-100.00,West,263,11.0,21.0,26,0.00,,,0.00,706.000000,,2013-07-27 00:43:00,
2013-07-26 17:53:00,86.0,47.0,-100.00,West,263,11.0,21.0,26,0.00,,,0.00,706.000000,,2013-07-27 00:53:00,
2013-07-26 18:02:00,83.0,47.0,-100.00,West,267,12.0,22.0,29,0.00,,,0.00,521.000000,,2013-07-27 01:02:00,
2013-07-26 18:32:00,83.0,47.0,-100.00,West,267,12.0,22.0,29,0.00,,,0.00,521.000000,,2013-07-27 01:32:00,
2013-07-26 18:44:00,83.0,47.0,-100.00,West,267,12.0,22.0,29,0.00,,,0.00,521.000000,,2013-07-27 01:44:00,
2013-07-26 18:53:00,83.0,47.0,-100.00,West,267,12.0,22.0,29,0.00,,,0.00,521.000000,,2013-07-27 01:53:00,
2013-07-26 19:02:00,78.0,45.0,-100.00,WSW,258,11.0,20.0,31,0.00,,,-99.99,322.000000,,2013-07-27 02:02:00,
2013-07-26 19:32:00,78.0,45.0,-100.00,WSW,258,11.0,20.0,31,0.00,,,-99.99,322.000000,,2013-07-27 02:32:00,
2013-07-26 19:43:00,78.0,45.0,-100.00,WSW,258,11.0,20.0,31,0.00,,,-99.99,322.000000,,2013-07-27 02:43:00,
2013-07-26 19:53:00,78.0,45.0,-100.00,WSW,258,11.0,20.0,31,0.00,,,-99.99,322.000000,,2013-07-27 02:53:00,
2013-07-26 20:02:00,74.0,45.0,-100.00,West,259,11.0,23.0,36,0.00,,,0.00,128.000000,,2013-07-27 03:02:00,
2013-07-26 20:33:00,74.0,45.0,-100.00,West,259,11.0,23.0,36,0.00,,,0.00,128.000000,,2013-07-27 03:33:00,
2013-07-26 20:44:00,74.0,45.0,-100.00,West,259,11.0,23.0,36,0.00,,,0.00,128.000000,,2013-07-27 03:44:00,
2013-07-26 20:52:00,74.0,45.0,-100.00,West,259,11.0,23.0,36,0.00,,,0.00,128.000000,,2013-07-27 03:52:00,
2013-07-26 21:32:00,72.0,42.0,-100.00,WSW,258,11.0,25.0,34,0.00,,,0.00,4.000000,,2013-07-27 04:32:00,